Torna al catalogo

STARLINK-31453

AttivoComunicazioniVLEO
NORAD 59522·PAYLOAD·🇺🇸 United States

Lanciato Apr 17, 2024 da Cape Canaveral Space Force Station

Loading…

Prossimi Passaggi (prossime 24 ore)

TLE

AggiornatoSource: CelesTrak SupGP

Epoca: Sep 14, 2026, 21:40 UTC

1 59522C 24073M   26257.90326389 -.00014536  00000+0 -52644-3 0  2572
2 59522  43.0017 311.6657 0001843 272.7706 151.0221 15.27588938    15

Traccia STARLINK-31453 in tempo reale con AllMySat

Download on the App Store